Location: ??
(35.3149°N, 139.6204°E)
Time: 11:15:24
(UTC+00:00)

Cosmos 2219 Rocket - Pass Details

Date: 03 August 2024
Orbit: 826 x 847 km, 71.0° (Epoch: 07 September)

Event Time Altitude Azimuth Distance (km) Brightness Sun altitude
Exits shadow 17:17:58 77° 256° (WSW) 866 2.0 -26.5°
Maximum altitude 17:18:14 79° 291° (WNW) 860 2.1 -26.5°
Drops below altitude 10° 17:23:55 10° 19° (NNE) 2,470 5.5 -25.7°
Sets 17:26:23 0° 20° (NNE) 3,411 6.5 -25.4°
